sat.trackr.live / text

‹ back to catalog

STARLINK-11747 [DTC]

NORAD 64322 · 2025-124F

PAYLOAD ACTIVE UNKNOWN

§ Identity

Operator
Country
US
Launch date
2025-06-10
Launch site
AFETR
Launch vehicle
Mass (kg)
RCS (m²)

Purposes: comms

External: N2YO · Heavens-Above · Gunter

§ Orbital elements

Epoch: 2026-09-20T03:03:16.010496Z

Period
91.67 min
Inclination
43.0000°
Eccentricity
0.0001559
Mean motion
15.70885904 rev/d
Perigee alt
355.3 km
Apogee alt
357.4 km
Semi-major
6,734.5 km
B*
1.1867e-3
RAAN
297.2743°
Arg perigee
269.2115°
Mean anomaly
90.8574°
Rev number
7,341

§ Raw data

STARLINK-11747 [DTC]1 64322U 25124F   26263.12726864  .00154997  00000+0  11867-2 0  99952 64322  43.0000 297.2743 0001559 269.2115  90.8574 15.70885904 73411

JSON: /api/v1/satellites/64322 · /tle

For live sub-satellite position, see the globe view (requires WebGL).

§ Visibility from observer

Set your observer location to see the next 7 days of passes ≥ 10°. The values pass through the URL so the page stays shareable.

No JS? Fill the form by hand. The geolocation button needs JavaScript.